Year,Month,Day,Hour,Minute,Value (Times are PST for temperature in C)
2009,05,28,00,00,10.10
2009,05,28,00,01,10.10
2009,05,28,00,02,10.10
2009,05,28,00,03,10.10
2009,05,28,00,04,10.10
2009,05,28,00,05,10.10
2009,05,28,00,06,10.10
2009,05,28,00,07,10.10
2009,05,28,00,08,10.10
2009,05,28,00,09,10.10
2009,05,28,00,10,10.10
2009,05,28,00,11,10.10
2009,05,28,00,12,10.10
2009,05,28,00,13,10.10
2009,05,28,00,14,10.00
2009,05,28,00,15,10.00
2009,05,28,00,16,9.90
2009,05,28,00,17,9.90
2009,05,28,00,18,9.90
2009,05,28,00,19,9.90
2009,05,28,00,20,9.90
2009,05,28,00,21,9.80
2009,05,28,00,22,9.80
2009,05,28,00,23,9.80
2009,05,28,00,24,9.80
2009,05,28,00,25,9.80
2009,05,28,00,26,9.80
2009,05,28,00,27,9.80
2009,05,28,00,28,9.80
2009,05,28,00,29,9.80
2009,05,28,00,30,9.80
2009,05,28,00,31,9.80
2009,05,28,00,32,9.90
2009,05,28,00,33,9.90
2009,05,28,00,34,9.90
2009,05,28,00,35,10.00
2009,05,28,00,36,10.00
2009,05,28,00,37,10.10
2009,05,28,00,38,10.10
2009,05,28,00,39,10.10
2009,05,28,00,40,10.10
2009,05,28,00,41,10.10
2009,05,28,00,42,10.00
2009,05,28,00,43,10.00
2009,05,28,00,44,9.90
2009,05,28,00,45,9.80
2009,05,28,00,46,9.80
2009,05,28,00,47,9.80
2009,05,28,00,48,9.80
2009,05,28,00,49,9.80
2009,05,28,00,50,9.90
2009,05,28,00,51,9.90
2009,05,28,00,52,10.00
2009,05,28,00,53,10.10
2009,05,28,00,54,10.10
2009,05,28,00,55,10.20
2009,05,28,00,56,10.20
2009,05,28,00,57,10.20
2009,05,28,00,58,10.20
2009,05,28,00,59,10.10
2009,05,28,01,00,10.00
2009,05,28,01,01,9.90
2009,05,28,01,02,9.90
2009,05,28,01,03,9.80
2009,05,28,01,04,9.80
2009,05,28,01,05,9.80
2009,05,28,01,06,9.70
2009,05,28,01,07,9.70
2009,05,28,01,08,9.70
2009,05,28,01,09,9.60
2009,05,28,01,10,9.60
2009,05,28,01,11,9.60
2009,05,28,01,12,9.50
2009,05,28,01,13,9.40
2009,05,28,01,14,9.40
2009,05,28,01,15,9.40
2009,05,28,01,16,9.30
2009,05,28,01,17,9.30
2009,05,28,01,18,9.30
2009,05,28,01,19,9.30
2009,05,28,01,20,9.30
2009,05,28,01,21,9.30
2009,05,28,01,22,9.30
2009,05,28,01,23,9.30
2009,05,28,01,24,9.30
2009,05,28,01,25,9.20
2009,05,28,01,26,9.20
2009,05,28,01,27,9.20
2009,05,28,01,28,9.20
2009,05,28,01,29,9.20
2009,05,28,01,30,9.20
2009,05,28,01,31,9.10
2009,05,28,01,32,9.10
2009,05,28,01,33,9.10
2009,05,28,01,34,9.10
2009,05,28,01,35,9.10
2009,05,28,01,36,9.10
2009,05,28,01,37,9.00
2009,05,28,01,38,9.00
2009,05,28,01,39,9.00
2009,05,28,01,40,8.90
2009,05,28,01,41,8.90
2009,05,28,01,42,8.90
2009,05,28,01,43,8.90
2009,05,28,01,44,8.90
2009,05,28,01,45,8.80
2009,05,28,01,46,8.80
2009,05,28,01,47,8.80
2009,05,28,01,48,8.80
2009,05,28,01,49,8.80
2009,05,28,01,50,8.80
2009,05,28,01,51,8.80
2009,05,28,01,52,8.80
2009,05,28,01,53,8.80
2009,05,28,01,54,8.80
2009,05,28,01,55,8.80
2009,05,28,01,56,8.70
2009,05,28,01,57,8.70
2009,05,28,01,58,8.70
2009,05,28,01,59,8.70
2009,05,28,02,00,8.70
2009,05,28,02,01,8.70
2009,05,28,02,02,8.70
2009,05,28,02,03,8.70
2009,05,28,02,04,8.70
2009,05,28,02,05,8.80
2009,05,28,02,06,8.80
2009,05,28,02,07,8.80
2009,05,28,02,08,8.80
2009,05,28,02,09,8.80
2009,05,28,02,10,8.80
2009,05,28,02,11,8.80
2009,05,28,02,12,8.80
2009,05,28,02,13,8.80
2009,05,28,02,14,8.80
2009,05,28,02,15,8.80
2009,05,28,02,16,8.80
2009,05,28,02,17,8.80
2009,05,28,02,18,8.70
2009,05,28,02,19,8.70
2009,05,28,02,20,8.70
2009,05,28,02,21,8.70
2009,05,28,02,22,8.60
2009,05,28,02,23,8.60
2009,05,28,02,24,8.60
2009,05,28,02,25,8.60
2009,05,28,02,26,8.50
2009,05,28,02,27,8.50
2009,05,28,02,28,8.50
2009,05,28,02,29,8.40
2009,05,28,02,30,8.40
2009,05,28,02,31,8.40
2009,05,28,02,32,8.40
2009,05,28,02,33,8.40
2009,05,28,02,34,8.40
2009,05,28,02,35,8.40
2009,05,28,02,36,8.30
2009,05,28,02,37,8.30
2009,05,28,02,38,8.30
2009,05,28,02,39,8.30
2009,05,28,02,40,8.20
2009,05,28,02,41,8.20
2009,05,28,02,42,8.20
2009,05,28,02,43,8.10
2009,05,28,02,44,8.10
2009,05,28,02,45,8.10
2009,05,28,02,46,8.10
2009,05,28,02,47,8.10
2009,05,28,02,48,8.10
2009,05,28,02,49,8.10
2009,05,28,02,50,8.10
2009,05,28,02,51,8.10
2009,05,28,02,52,8.10
2009,05,28,02,53,8.20
2009,05,28,02,54,8.30
2009,05,28,02,55,8.40
2009,05,28,02,56,8.60
2009,05,28,02,57,8.70
2009,05,28,02,58,8.80
2009,05,28,02,59,9.00
2009,05,28,03,00,9.10
2009,05,28,03,01,9.20
2009,05,28,03,02,9.30
2009,05,28,03,03,9.40
2009,05,28,03,04,9.50
2009,05,28,03,05,9.60
2009,05,28,03,06,9.70
2009,05,28,03,07,9.80
2009,05,28,03,08,9.90
2009,05,28,03,09,10.00
2009,05,28,03,10,10.00
2009,05,28,03,11,10.10
2009,05,28,03,12,10.10
2009,05,28,03,13,10.20
2009,05,28,03,14,10.20
2009,05,28,03,15,10.20
2009,05,28,03,16,10.30
2009,05,28,03,17,10.30
2009,05,28,03,18,10.30
2009,05,28,03,19,10.30
2009,05,28,03,20,10.30
2009,05,28,03,21,10.30
2009,05,28,03,22,10.40
2009,05,28,03,23,10.40
2009,05,28,03,24,10.40
2009,05,28,03,25,10.40
2009,05,28,03,26,10.30
2009,05,28,03,27,10.30
2009,05,28,03,28,10.30
2009,05,28,03,29,10.30
2009,05,28,03,30,10.30
2009,05,28,03,31,10.20
2009,05,28,03,32,10.20
2009,05,28,03,33,10.20
2009,05,28,03,34,10.10
2009,05,28,03,35,10.10
2009,05,28,03,36,10.10
2009,05,28,03,37,10.10
2009,05,28,03,38,10.00
2009,05,28,03,39,9.70
2009,05,28,03,40,9.50
2009,05,28,03,41,9.30
2009,05,28,03,42,9.10
2009,05,28,03,43,9.00
2009,05,28,03,44,8.90
2009,05,28,03,45,8.80
2009,05,28,03,46,8.70
2009,05,28,03,47,8.70
2009,05,28,03,48,8.60
2009,05,28,03,49,8.60
2009,05,28,03,50,8.50
2009,05,28,03,51,8.50
2009,05,28,03,52,8.40
2009,05,28,03,53,8.40
2009,05,28,03,54,8.40
2009,05,28,03,55,8.30
2009,05,28,03,56,8.30
2009,05,28,03,57,8.30
2009,05,28,03,58,8.30
2009,05,28,03,59,8.30
2009,05,28,04,00,8.20
2009,05,28,04,01,8.20
2009,05,28,04,02,8.20
2009,05,28,04,03,8.20
2009,05,28,04,04,8.20
2009,05,28,04,05,8.10
2009,05,28,04,06,8.10
2009,05,28,04,07,8.10
2009,05,28,04,08,8.10
2009,05,28,04,09,8.10
2009,05,28,04,10,8.10
2009,05,28,04,11,8.00
2009,05,28,04,12,7.90
2009,05,28,04,13,7.90
2009,05,28,04,14,7.90
2009,05,28,04,15,7.80
2009,05,28,04,16,7.80
2009,05,28,04,17,7.90
2009,05,28,04,18,7.90
2009,05,28,04,19,7.90
2009,05,28,04,20,7.90
2009,05,28,04,21,7.90
2009,05,28,04,22,7.90
2009,05,28,04,23,7.90
2009,05,28,04,24,7.90
2009,05,28,04,25,7.90
2009,05,28,04,26,7.80
2009,05,28,04,27,7.80
2009,05,28,04,28,7.80
2009,05,28,04,29,7.80
2009,05,28,04,30,7.80
2009,05,28,04,31,7.80
2009,05,28,04,32,7.80
2009,05,28,04,33,7.80
2009,05,28,04,34,7.80
2009,05,28,04,35,7.80
2009,05,28,04,36,7.80
2009,05,28,04,37,7.80
2009,05,28,04,38,7.80
2009,05,28,04,39,7.80
2009,05,28,04,40,7.80
2009,05,28,04,41,7.80
2009,05,28,04,42,7.80
2009,05,28,04,43,7.70
2009,05,28,04,44,7.70
2009,05,28,04,45,7.70
2009,05,28,04,46,7.70
2009,05,28,04,47,7.70
2009,05,28,04,48,7.70
2009,05,28,04,49,7.60
2009,05,28,04,50,7.60
2009,05,28,04,51,7.60
2009,05,28,04,52,7.60
2009,05,28,04,53,7.60
2009,05,28,04,54,7.50
2009,05,28,04,55,7.50
2009,05,28,04,56,7.40
2009,05,28,04,57,7.40
2009,05,28,04,58,7.40
2009,05,28,04,59,7.40
2009,05,28,05,00,7.50
2009,05,28,05,01,7.50
2009,05,28,05,02,7.50
2009,05,28,05,03,7.50
2009,05,28,05,04,7.50
2009,05,28,05,05,7.50
2009,05,28,05,06,7.50
2009,05,28,05,07,7.40
2009,05,28,05,08,7.40
2009,05,28,05,09,7.40
2009,05,28,05,10,7.40
2009,05,28,05,11,7.30
2009,05,28,05,12,7.40
2009,05,28,05,13,7.40
2009,05,28,05,14,7.40
2009,05,28,05,15,7.40
2009,05,28,05,16,7.40
2009,05,28,05,17,7.40
2009,05,28,05,18,7.40
2009,05,28,05,19,7.40
2009,05,28,05,20,7.40
2009,05,28,05,21,7.40
2009,05,28,05,22,7.30
2009,05,28,05,23,7.30
2009,05,28,05,24,7.30
2009,05,28,05,25,7.30
2009,05,28,05,26,7.30
2009,05,28,05,27,7.30
2009,05,28,05,28,7.30
2009,05,28,05,29,7.30
2009,05,28,05,30,7.30
2009,05,28,05,31,7.30
2009,05,28,05,32,7.30
2009,05,28,05,33,7.30
2009,05,28,05,34,7.30
2009,05,28,05,35,7.30
2009,05,28,05,36,7.30
2009,05,28,05,37,7.30
2009,05,28,05,38,7.30
2009,05,28,05,39,7.30
2009,05,28,05,40,7.30
2009,05,28,05,41,7.30
2009,05,28,05,42,7.30
2009,05,28,05,43,7.20
2009,05,28,05,44,7.20
2009,05,28,05,45,7.20
2009,05,28,05,46,7.20
2009,05,28,05,47,7.20
2009,05,28,05,48,7.20
2009,05,28,05,49,7.20
2009,05,28,05,50,7.20
2009,05,28,05,51,7.20
2009,05,28,05,52,7.20
2009,05,28,05,53,7.20
2009,05,28,05,54,7.20
2009,05,28,05,55,7.20
2009,05,28,05,56,7.30
2009,05,28,05,57,7.30
2009,05,28,05,58,7.30
2009,05,28,05,59,7.30
2009,05,28,06,00,7.40
2009,05,28,06,01,7.40
2009,05,28,06,02,7.40
2009,05,28,06,03,7.40
2009,05,28,06,04,7.40
2009,05,28,06,05,7.40
2009,05,28,06,06,7.40
2009,05,28,06,07,7.40
2009,05,28,06,08,7.40
2009,05,28,06,09,7.40
2009,05,28,06,10,7.40
2009,05,28,06,11,7.40
2009,05,28,06,12,7.40
2009,05,28,06,13,7.40
2009,05,28,06,14,7.40
2009,05,28,06,15,7.40
2009,05,28,06,16,7.40
2009,05,28,06,17,7.40
2009,05,28,06,18,7.40
2009,05,28,06,19,7.50
2009,05,28,06,20,7.50
2009,05,28,06,21,7.50
2009,05,28,06,22,7.50
2009,05,28,06,23,7.60
2009,05,28,06,24,7.60
2009,05,28,06,25,7.60
2009,05,28,06,26,7.60
2009,05,28,06,27,7.60
2009,05,28,06,28,7.60
2009,05,28,06,29,7.70
2009,05,28,06,30,7.70
2009,05,28,06,31,7.70
2009,05,28,06,32,7.70
2009,05,28,06,33,7.80
2009,05,28,06,34,7.80
2009,05,28,06,35,7.80
2009,05,28,06,36,7.90
2009,05,28,06,37,7.90
2009,05,28,06,38,7.90
2009,05,28,06,39,8.00
2009,05,28,06,40,8.00
2009,05,28,06,41,8.00
2009,05,28,06,42,8.10
2009,05,28,06,43,8.10
2009,05,28,06,44,8.20
2009,05,28,06,45,8.20
2009,05,28,06,46,8.20
2009,05,28,06,47,8.20
2009,05,28,06,48,8.20
2009,05,28,06,49,8.30
2009,05,28,06,50,8.30
2009,05,28,06,51,8.30
2009,05,28,06,52,8.30
2009,05,28,06,53,8.30
2009,05,28,06,54,8.40
2009,05,28,06,55,8.40
2009,05,28,06,56,8.50
2009,05,28,06,57,8.60
2009,05,28,06,58,8.70
2009,05,28,06,59,8.80
2009,05,28,07,00,8.90
2009,05,28,07,01,9.00
2009,05,28,07,02,9.00
2009,05,28,07,03,9.10
2009,05,28,07,04,9.20
2009,05,28,07,05,9.30
2009,05,28,07,06,9.30
2009,05,28,07,07,9.40
2009,05,28,07,08,9.50
2009,05,28,07,09,9.60
2009,05,28,07,10,9.60
2009,05,28,07,11,9.70
2009,05,28,07,12,9.80
2009,05,28,07,13,9.80
2009,05,28,07,14,9.90
2009,05,28,07,15,9.90
2009,05,28,07,16,10.00
2009,05,28,07,17,10.10
2009,05,28,07,18,10.20
2009,05,28,07,19,10.20
2009,05,28,07,20,10.30
2009,05,28,07,21,10.40
2009,05,28,07,22,10.40
2009,05,28,07,23,10.50
2009,05,28,07,24,10.60
2009,05,28,07,25,10.60
2009,05,28,07,26,10.70
2009,05,28,07,27,10.80
2009,05,28,07,28,10.80
2009,05,28,07,29,10.80
2009,05,28,07,30,10.90
2009,05,28,07,31,11.00
2009,05,28,07,32,11.10
2009,05,28,07,33,11.20
2009,05,28,07,34,11.30
2009,05,28,07,35,11.30
2009,05,28,07,36,11.40
2009,05,28,07,37,11.50
2009,05,28,07,38,11.60
2009,05,28,07,39,11.70
2009,05,28,07,40,11.70
2009,05,28,07,41,11.80
2009,05,28,07,42,11.90
2009,05,28,07,43,12.00
2009,05,28,07,44,12.10
2009,05,28,07,45,12.20
2009,05,28,07,46,12.20
2009,05,28,07,47,12.30
2009,05,28,07,48,12.40
2009,05,28,07,49,12.50
2009,05,28,07,50,12.60
2009,05,28,07,51,12.60
2009,05,28,07,52,12.70
2009,05,28,07,53,12.70
2009,05,28,07,54,12.80
2009,05,28,07,55,12.80
2009,05,28,07,56,12.80
2009,05,28,07,57,12.80
2009,05,28,07,58,12.80
2009,05,28,07,59,12.80
2009,05,28,08,00,12.80
2009,05,28,08,01,12.80
2009,05,28,08,02,12.80
2009,05,28,08,03,12.80
2009,05,28,08,04,12.80
2009,05,28,08,05,12.80
2009,05,28,08,06,12.80
2009,05,28,08,07,12.70
2009,05,28,08,08,12.70
2009,05,28,08,09,12.70
2009,05,28,08,10,12.70
2009,05,28,08,11,12.70
2009,05,28,08,12,12.60
2009,05,28,08,13,12.60
2009,05,28,08,14,12.60
2009,05,28,08,15,12.60
2009,05,28,08,16,12.60
2009,05,28,08,17,12.70
2009,05,28,08,18,12.70
2009,05,28,08,19,12.80
2009,05,28,08,20,12.80
2009,05,28,08,21,12.80
2009,05,28,08,22,12.90
2009,05,28,08,23,12.90
2009,05,28,08,24,12.90
2009,05,28,08,25,12.90
2009,05,28,08,26,13.00
2009,05,28,08,27,13.00
2009,05,28,08,28,13.00
2009,05,28,08,29,12.90
2009,05,28,08,30,12.90
2009,05,28,08,31,12.90
2009,05,28,08,32,12.90
2009,05,28,08,33,12.90
2009,05,28,08,34,13.00
2009,05,28,08,35,13.10
2009,05,28,08,36,13.10
2009,05,28,08,37,13.20
2009,05,28,08,38,13.20
2009,05,28,08,39,13.10
2009,05,28,08,40,13.10
2009,05,28,08,41,13.10
2009,05,28,08,42,13.10
2009,05,28,08,43,13.20
2009,05,28,08,44,13.20
2009,05,28,08,45,13.30
2009,05,28,08,46,13.40
2009,05,28,08,47,13.50
2009,05,28,08,48,13.50
2009,05,28,08,49,13.60
2009,05,28,08,50,13.60
2009,05,28,08,51,13.60
2009,05,28,08,52,13.60
2009,05,28,08,53,13.60
2009,05,28,08,54,13.70
2009,05,28,08,55,13.70
2009,05,28,08,56,13.70
2009,05,28,08,57,13.70
2009,05,28,08,58,13.80
2009,05,28,08,59,13.90
2009,05,28,09,00,13.90
2009,05,28,09,01,13.90
2009,05,28,09,02,14.00
2009,05,28,09,03,14.10
2009,05,28,09,04,14.10
2009,05,28,09,05,14.10
2009,05,28,09,06,14.20
2009,05,28,09,07,14.20
2009,05,28,09,08,14.20
2009,05,28,09,09,14.30
2009,05,28,09,10,14.40
2009,05,28,09,11,14.40
2009,05,28,09,12,14.40
2009,05,28,09,13,14.40
2009,05,28,09,14,14.30
2009,05,28,09,15,14.30
2009,05,28,09,16,14.30
2009,05,28,09,17,14.40
2009,05,28,09,18,14.40
2009,05,28,09,19,14.40
2009,05,28,09,20,14.40
2009,05,28,09,21,14.50
2009,05,28,09,22,14.50
2009,05,28,09,23,14.60
2009,05,28,09,24,14.60
2009,05,28,09,25,14.60
2009,05,28,09,26,14.70
2009,05,28,09,27,14.70
2009,05,28,09,28,14.70
2009,05,28,09,29,14.90
2009,05,28,09,30,15.00
2009,05,28,09,31,15.00
2009,05,28,09,32,15.00
2009,05,28,09,33,15.00
2009,05,28,09,34,15.00
2009,05,28,09,35,15.00
2009,05,28,09,36,15.00
2009,05,28,09,37,15.00
2009,05,28,09,38,14.90
2009,05,28,09,39,15.00
2009,05,28,09,40,15.00
2009,05,28,09,41,15.00
2009,05,28,09,42,14.90
2009,05,28,09,43,14.90
2009,05,28,09,44,15.00
2009,05,28,09,45,15.00
2009,05,28,09,46,15.00
2009,05,28,09,47,15.00
2009,05,28,09,48,15.00
2009,05,28,09,49,15.00
2009,05,28,09,50,15.10
2009,05,28,09,51,15.20
2009,05,28,09,52,15.30
2009,05,28,09,53,15.30
2009,05,28,09,54,15.40
2009,05,28,09,55,15.40
2009,05,28,09,56,15.40
2009,05,28,09,57,15.40
2009,05,28,09,58,15.40
2009,05,28,09,59,15.50
2009,05,28,10,00,15.50
2009,05,28,10,01,15.60
2009,05,28,10,02,15.60
2009,05,28,10,03,15.60
2009,05,28,10,04,15.60
2009,05,28,10,05,15.70
2009,05,28,10,06,15.80
2009,05,28,10,07,15.80
2009,05,28,10,08,15.80
2009,05,28,10,09,15.80
2009,05,28,10,10,15.80
2009,05,28,10,11,15.80
2009,05,28,10,12,15.80
2009,05,28,10,13,15.80
2009,05,28,10,14,15.70
2009,05,28,10,15,15.70
2009,05,28,10,16,15.70
2009,05,28,10,17,15.70
2009,05,28,10,18,15.70
2009,05,28,10,19,15.70
2009,05,28,10,20,15.60
2009,05,28,10,21,15.60
2009,05,28,10,22,15.60
2009,05,28,10,23,15.80
2009,05,28,10,24,15.90
2009,05,28,10,25,15.90
2009,05,28,10,26,15.90
2009,05,28,10,27,16.00
2009,05,28,10,28,16.00
2009,05,28,10,29,16.10
2009,05,28,10,30,16.10
2009,05,28,10,31,16.20
2009,05,28,10,32,16.30
2009,05,28,10,33,16.40
2009,05,28,10,34,16.40
2009,05,28,10,35,16.40
2009,05,28,10,36,16.40
2009,05,28,10,37,16.40
2009,05,28,10,38,16.40
2009,05,28,10,39,16.50
2009,05,28,10,40,16.50
2009,05,28,10,41,16.50
2009,05,28,10,42,16.60
2009,05,28,10,43,16.60
2009,05,28,10,44,16.60
2009,05,28,10,45,16.60
2009,05,28,10,46,16.60
2009,05,28,10,47,16.60
2009,05,28,10,48,16.60
2009,05,28,10,49,16.60
2009,05,28,10,50,16.60
2009,05,28,10,51,16.70
2009,05,28,10,52,16.80
2009,05,28,10,53,16.80
2009,05,28,10,54,16.80
2009,05,28,10,55,16.70
2009,05,28,10,56,16.80
2009,05,28,10,57,16.80
2009,05,28,10,58,16.80
2009,05,28,10,59,16.80
2009,05,28,11,00,16.80
2009,05,28,11,01,16.60
2009,05,28,11,02,16.60
2009,05,28,11,03,16.40
2009,05,28,11,04,16.40
2009,05,28,11,05,16.40
2009,05,28,11,06,16.40
2009,05,28,11,07,16.50
2009,05,28,11,08,16.60
2009,05,28,11,09,16.60
2009,05,28,11,10,16.60
2009,05,28,11,11,16.60
2009,05,28,11,12,16.70
2009,05,28,11,13,16.90
2009,05,28,11,14,16.90
2009,05,28,11,15,16.90
2009,05,28,11,16,16.80
2009,05,28,11,17,16.80
2009,05,28,11,18,16.80
2009,05,28,11,19,16.90
2009,05,28,11,20,17.00
2009,05,28,11,21,17.20
2009,05,28,11,22,17.30
2009,05,28,11,23,17.40
2009,05,28,11,24,17.50
2009,05,28,11,25,17.60
2009,05,28,11,26,17.60
2009,05,28,11,27,17.60
2009,05,28,11,28,17.60
2009,05,28,11,29,17.60
2009,05,28,11,30,17.60
2009,05,28,11,31,17.60
2009,05,28,11,32,17.50
2009,05,28,11,33,17.40
2009,05,28,11,34,17.30
2009,05,28,11,35,17.30
2009,05,28,11,36,17.30
2009,05,28,11,37,17.30
2009,05,28,11,38,17.30
2009,05,28,11,39,17.30
2009,05,28,11,40,17.30
2009,05,28,11,41,17.30
2009,05,28,11,42,17.30
2009,05,28,11,43,17.40
2009,05,28,11,44,17.50
2009,05,28,11,45,17.60
2009,05,28,11,46,17.60
2009,05,28,11,47,17.70
2009,05,28,11,48,17.70
2009,05,28,11,49,17.60
2009,05,28,11,50,17.60
2009,05,28,11,51,17.70
2009,05,28,11,52,17.70
2009,05,28,11,53,17.80
2009,05,28,11,54,17.80
2009,05,28,11,55,18.00
2009,05,28,11,56,18.10
2009,05,28,11,57,18.00
2009,05,28,11,58,18.00
2009,05,28,11,59,17.80
2009,05,28,12,00,17.80
2009,05,28,12,01,17.80
2009,05,28,12,02,17.70
2009,05,28,12,03,17.70
2009,05,28,12,04,17.80
2009,05,28,12,05,17.70
2009,05,28,12,06,17.70
2009,05,28,12,07,17.60
2009,05,28,12,08,17.70
2009,05,28,12,09,17.80
2009,05,28,12,10,17.90
2009,05,28,12,11,18.10
2009,05,28,12,12,18.30
2009,05,28,12,13,18.30
2009,05,28,12,14,18.30
2009,05,28,12,15,18.20
2009,05,28,12,16,18.20
2009,05,28,12,17,18.20
2009,05,28,12,18,18.20
2009,05,28,12,19,18.10
2009,05,28,12,20,18.00
2009,05,28,12,21,18.00
2009,05,28,12,22,18.00
2009,05,28,12,23,17.90
2009,05,28,12,24,18.00
2009,05,28,12,25,18.10
2009,05,28,12,26,18.10
2009,05,28,12,27,18.20
2009,05,28,12,28,18.30
2009,05,28,12,29,18.40
2009,05,28,12,30,18.50
2009,05,28,12,31,18.60
2009,05,28,12,32,18.70
2009,05,28,12,33,18.70
2009,05,28,12,34,18.60
2009,05,28,12,35,18.50
2009,05,28,12,36,18.50
2009,05,28,12,37,18.50
2009,05,28,12,38,18.40
2009,05,28,12,39,18.30
2009,05,28,12,40,18.30
2009,05,28,12,41,18.50
2009,05,28,12,42,18.60
2009,05,28,12,43,18.70
2009,05,28,12,44,18.70
2009,05,28,12,45,18.80
2009,05,28,12,46,18.80
2009,05,28,12,47,18.80
2009,05,28,12,48,18.80
2009,05,28,12,49,18.80
2009,05,28,12,50,18.80
2009,05,28,12,51,18.80
2009,05,28,12,52,18.80
2009,05,28,12,53,18.70
2009,05,28,12,54,18.70
2009,05,28,12,55,18.70
2009,05,28,12,56,18.70
2009,05,28,12,57,18.70
2009,05,28,12,58,18.70
2009,05,28,12,59,18.80
2009,05,28,13,00,18.80
2009,05,28,13,01,18.90
2009,05,28,13,02,19.00
2009,05,28,13,03,19.00
2009,05,28,13,04,19.00
2009,05,28,13,05,19.00
2009,05,28,13,06,19.10
2009,05,28,13,07,19.00
2009,05,28,13,08,19.00
2009,05,28,13,09,19.00
2009,05,28,13,10,19.10
2009,05,28,13,11,19.10
2009,05,28,13,12,19.20
2009,05,28,13,13,19.30
2009,05,28,13,14,19.30
2009,05,28,13,15,19.40
2009,05,28,13,16,19.50
2009,05,28,13,17,19.60
2009,05,28,13,18,19.60
2009,05,28,13,19,19.60
2009,05,28,13,20,19.60
2009,05,28,13,21,19.50
2009,05,28,13,22,19.40
2009,05,28,13,23,19.30
2009,05,28,13,24,19.20
2009,05,28,13,25,19.10
2009,05,28,13,26,19.20
2009,05,28,13,27,19.30
2009,05,28,13,28,19.30
2009,05,28,13,29,19.30
2009,05,28,13,30,19.30
2009,05,28,13,31,19.40
2009,05,28,13,32,19.60
2009,05,28,13,33,19.70
2009,05,28,13,34,19.90
2009,05,28,13,35,19.90
2009,05,28,13,36,19.90
2009,05,28,13,37,20.00
2009,05,28,13,38,20.10
2009,05,28,13,39,20.20
2009,05,28,13,40,20.20
2009,05,28,13,41,20.20
2009,05,28,13,42,20.20
2009,05,28,13,43,20.20
2009,05,28,13,44,20.30
2009,05,28,13,45,20.30
2009,05,28,13,46,20.50
2009,05,28,13,47,20.60
2009,05,28,13,48,20.70
2009,05,28,13,49,20.70
2009,05,28,13,50,20.50
2009,05,28,13,51,20.40
2009,05,28,13,52,20.40
2009,05,28,13,53,20.30
2009,05,28,13,54,20.30
2009,05,28,13,55,20.40
2009,05,28,13,56,20.40
2009,05,28,13,57,20.40
2009,05,28,13,58,20.30
2009,05,28,13,59,20.20
2009,05,28,14,00,20.30
2009,05,28,14,01,20.30
2009,05,28,14,02,20.30
2009,05,28,14,03,20.30
2009,05,28,14,04,20.40
2009,05,28,14,05,20.40
2009,05,28,14,06,20.50
2009,05,28,14,07,20.70
2009,05,28,14,08,20.80
2009,05,28,14,09,20.80
2009,05,28,14,10,20.70
2009,05,28,14,11,20.70
2009,05,28,14,12,20.80
2009,05,28,14,13,20.90
2009,05,28,14,14,20.90
2009,05,28,14,15,20.90
2009,05,28,14,16,20.80
2009,05,28,14,17,20.60
2009,05,28,14,18,20.50
2009,05,28,14,19,20.40
2009,05,28,14,20,20.40
2009,05,28,14,21,20.40
2009,05,28,14,22,20.40
2009,05,28,14,23,20.40
2009,05,28,14,24,20.40
2009,05,28,14,25,20.60
2009,05,28,14,26,20.50
2009,05,28,14,27,20.50
2009,05,28,14,28,20.60
2009,05,28,14,29,20.70
2009,05,28,14,30,20.70
2009,05,28,14,31,20.80
2009,05,28,14,32,20.70
2009,05,28,14,33,20.60
2009,05,28,14,34,20.50
2009,05,28,14,35,20.50
2009,05,28,14,36,20.50
2009,05,28,14,37,20.60
2009,05,28,14,38,20.70
2009,05,28,14,39,20.70
2009,05,28,14,40,20.80
2009,05,28,14,41,20.80
2009,05,28,14,42,20.80
2009,05,28,14,43,20.80
2009,05,28,14,44,20.80
2009,05,28,14,45,20.80
2009,05,28,14,46,20.80
2009,05,28,14,47,20.80
2009,05,28,14,48,20.70
2009,05,28,14,49,20.70
2009,05,28,14,50,20.60
2009,05,28,14,51,20.70
2009,05,28,14,52,20.70
2009,05,28,14,53,20.80
2009,05,28,14,54,20.80
2009,05,28,14,55,20.80
2009,05,28,14,56,20.90
2009,05,28,14,57,21.10
2009,05,28,14,58,21.10
2009,05,28,14,59,21.20
2009,05,28,15,00,21.30
2009,05,28,15,01,21.40
2009,05,28,15,02,21.30
2009,05,28,15,03,21.10
2009,05,28,15,04,21.10
2009,05,28,15,05,21.00
2009,05,28,15,06,20.90
2009,05,28,15,07,20.90
2009,05,28,15,08,20.90
2009,05,28,15,09,21.00
2009,05,28,15,10,21.00
2009,05,28,15,11,20.90
2009,05,28,15,12,20.90
2009,05,28,15,13,20.90
2009,05,28,15,14,20.90
2009,05,28,15,15,20.90
2009,05,28,15,16,20.80
2009,05,28,15,17,20.80
2009,05,28,15,18,20.80
2009,05,28,15,19,20.90
2009,05,28,15,20,20.90
2009,05,28,15,21,20.90
2009,05,28,15,22,21.00
2009,05,28,15,23,21.10
2009,05,28,15,24,21.10
2009,05,28,15,25,21.20
2009,05,28,15,26,21.00
2009,05,28,15,27,20.90
2009,05,28,15,28,20.80
2009,05,28,15,29,20.90
2009,05,28,15,30,21.00
2009,05,28,15,31,21.10
2009,05,28,15,32,21.10
2009,05,28,15,33,21.20
2009,05,28,15,34,21.30
2009,05,28,15,35,21.30
2009,05,28,15,36,21.40
2009,05,28,15,37,21.60
2009,05,28,15,38,21.60
2009,05,28,15,39,21.50
2009,05,28,15,40,21.50
2009,05,28,15,41,21.40
2009,05,28,15,42,21.50
2009,05,28,15,43,21.50
2009,05,28,15,44,21.60
2009,05,28,15,45,21.60
2009,05,28,15,46,21.60
2009,05,28,15,47,21.50
2009,05,28,15,48,21.50
2009,05,28,15,49,21.50
2009,05,28,15,50,21.60
2009,05,28,15,51,21.60
2009,05,28,15,52,21.60
2009,05,28,15,53,21.60
2009,05,28,15,54,21.70
2009,05,28,15,55,21.70
2009,05,28,15,56,21.70
2009,05,28,15,57,21.60
2009,05,28,15,58,21.60
2009,05,28,15,59,21.60
2009,05,28,16,00,21.60
2009,05,28,16,01,21.60
2009,05,28,16,02,21.60
2009,05,28,16,03,21.70
2009,05,28,16,04,21.60
2009,05,28,16,05,21.60
2009,05,28,16,06,21.50
2009,05,28,16,07,21.50
2009,05,28,16,08,21.40
2009,05,28,16,09,21.30
2009,05,28,16,10,21.40
2009,05,28,16,11,21.40
2009,05,28,16,12,21.30
2009,05,28,16,13,21.20
2009,05,28,16,14,21.20
2009,05,28,16,15,21.20
2009,05,28,16,16,21.30
2009,05,28,16,17,21.30
2009,05,28,16,18,21.30
2009,05,28,16,19,21.40
2009,05,28,16,20,21.50
2009,05,28,16,21,21.60
2009,05,28,16,22,21.60
2009,05,28,16,23,21.60
2009,05,28,16,24,21.60
2009,05,28,16,25,21.60
2009,05,28,16,26,21.70
2009,05,28,16,27,21.70
2009,05,28,16,28,21.70
2009,05,28,16,29,21.70
2009,05,28,16,30,21.60
2009,05,28,16,31,21.60
2009,05,28,16,32,21.50
2009,05,28,16,33,21.50
2009,05,28,16,34,21.50
2009,05,28,16,35,21.60
2009,05,28,16,36,21.60
2009,05,28,16,37,21.60
2009,05,28,16,38,21.80
2009,05,28,16,39,21.80
2009,05,28,16,40,21.80
2009,05,28,16,41,21.80
2009,05,28,16,42,21.80
2009,05,28,16,43,21.90
2009,05,28,16,44,22.00
2009,05,28,16,45,22.10
2009,05,28,16,46,22.10
2009,05,28,16,47,22.00
2009,05,28,16,48,21.90
2009,05,28,16,49,21.80
2009,05,28,16,50,21.80
2009,05,28,16,51,21.80
2009,05,28,16,52,21.80
2009,05,28,16,53,21.80
2009,05,28,16,54,21.80
2009,05,28,16,55,21.80
2009,05,28,16,56,21.90
2009,05,28,16,57,21.80
2009,05,28,16,58,21.80
2009,05,28,16,59,21.80
2009,05,28,17,00,21.80
2009,05,28,17,01,21.90
2009,05,28,17,02,21.90
2009,05,28,17,03,22.00
2009,05,28,17,04,22.10
2009,05,28,17,05,22.20
2009,05,28,17,06,22.30
2009,05,28,17,07,22.40
2009,05,28,17,08,22.50
2009,05,28,17,09,22.60
2009,05,28,17,10,22.70
2009,05,28,17,11,22.80
2009,05,28,17,12,22.80
2009,05,28,17,13,22.90
2009,05,28,17,14,23.00
2009,05,28,17,15,23.00
2009,05,28,17,16,23.00
2009,05,28,17,17,22.90
2009,05,28,17,18,22.80
2009,05,28,17,19,22.80
2009,05,28,17,20,22.80
2009,05,28,17,21,22.90
2009,05,28,17,22,22.90
2009,05,28,17,23,22.90
2009,05,28,17,24,22.90
2009,05,28,17,25,22.90
2009,05,28,17,26,22.90
2009,05,28,17,27,22.90
2009,05,28,17,28,23.00
2009,05,28,17,29,23.10
2009,05,28,17,30,23.20
2009,05,28,17,31,23.30
2009,05,28,17,32,23.30
2009,05,28,17,33,23.30
2009,05,28,17,34,23.20
2009,05,28,17,35,23.10